Weather History for KMUI - January, 2014

Change the Weather History Date:

Thursday, January 9, 2014

  Actual Average Record
Temperature  
Mean Temperature 24 °F -  
Max Temperature 30 °F 35 °F 60 °F (2006)
Min Temperature 17 °F 24 °F 10 °F (2004)
Degree Days  
Heating Degree Days 42    
Moisture  
Dew Point 16 °F    
Average Humidity 70    
Maximum Humidity 99    
Minimum Humidity 53    
Precipitation  
Precipitation 0.00 in - - ()
Sea Level Pressure  
Sea Level Pressure 30.60 in    
Wind  
Wind Speed 2 mph (ESE)    
Max Wind Speed 6 mph    
Max Gust Speed -    
Visibility 10 miles    
Events      
Averages and records for this station are not official NWS values.
T = Trace of Precipitation, MM = Missing Value Source: NWS Daily Summary

Daily Weather History Graph

Daily Weather History Graph

Search for Another Location

Airport or City:

Trip Planner

Search our weather history database for the weather conditions in past years. The results will help you decide how hot, cold, wet, or windy it might be!

Date:

Astronomy

Jan. 09, 2014 Rise Set
Actual Time 7:29 AM EST 4:57 PM EST
Civil Twilight 6:58 AM EST 5:28 PM EST
Nautical Twilight 6:25 AM EST 6:02 PM EST
Astronomical Twilight 5:52 AM EST 6:35 PM EST
Moon 12:24 PM EST (1/9) 1:34 AM EST (1/9)
Length of Visible Light 10h 29m
Length of Day
9h 28m
Waxing Gibbous, 66% of the Moon is Illuminated
Jan 9
Waxing Gibbous
Jan 15
Full
Jan 24
Last Quarter
Jan 30
New
Feb 6
First Quarter

Hourly Weather History & Observations

Time (EST) Temp. Windchill Dew Point Humidity Pressure Visibility Wind Dir Wind Speed Gust Speed Precip Events Conditions
12:58 AM 19.0 °F - 8.8 °F 64% 30.53 in 10.0 mi Calm Calm - N/A   Overcast
1:58 AM 19.2 °F - 9.9 °F 67% 30.54 in 10.0 mi Calm Calm - N/A   Mostly Cloudy
2:58 AM 19.2 °F - 11.7 °F 72% 30.55 in 10.0 mi Calm Calm - N/A   Mostly Cloudy
3:58 AM 19.0 °F - 13.8 °F 80% 30.57 in 10.0 mi SSW 2.3 mph - N/A   Overcast
4:58 AM 19.4 °F - 14.2 °F 80% 30.57 in 10.0 mi Variable 2.3 mph - N/A   Overcast
5:58 AM 17.6 °F - 16.7 °F 96% 30.58 in 10.0 mi SE 2.3 mph - N/A   Overcast
6:58 AM 23.4 °F - 16.7 °F 76% 30.59 in 10.0 mi Variable 2.3 mph - N/A   Mostly Cloudy
7:58 AM 21.9 °F - 16.5 °F 80% 30.62 in 10.0 mi Calm Calm - N/A   Clear
8:58 AM 25.0 °F - 16.9 °F 71% 30.66 in 10.0 mi Variable 1.2 mph - N/A   Clear
9:58 AM 26.8 °F 22.8 °F 15.8 °F 63% 30.69 in 10.0 mi ENE 3.5 mph - N/A   Clear
10:58 AM 27.9 °F 21.5 °F 15.3 °F 59% 30.67 in 10.0 mi Variable 5.8 mph - N/A   Clear
11:58 AM 28.6 °F 23.5 °F 14.9 °F 57% 30.63 in 10.0 mi SSE 4.6 mph - N/A   Clear
12:58 PM 29.7 °F 26.1 °F 14.4 °F 53% 30.61 in 10.0 mi South 3.5 mph - N/A   Clear
1:58 PM 30.2 °F 24.3 °F 15.6 °F 55% 30.61 in 10.0 mi South 5.8 mph - N/A   Clear
2:58 PM 30.7 °F 27.3 °F 15.6 °F 54% 30.61 in 10.0 mi SSW 3.5 mph - N/A   Clear
3:58 PM 29.5 °F - 14.9 °F 55% 30.62 in 10.0 mi SSE 2.3 mph - N/A   Clear
4:58 PM 28.8 °F - 16.9 °F 61% 30.61 in 10.0 mi ENE 2.3 mph - N/A   Overcast
6:58 PM 26.6 °F - 18.3 °F 71% 30.61 in 10.0 mi Calm Calm - N/A   Partly Cloudy
7:58 PM 22.1 °F 17.4 °F 21.9 °F 99% 30.61 in 10.0 mi NNE 3.5 mph - N/A   Scattered Clouds
8:58 PM 25.0 °F 20.7 °F 18.7 °F 77% 30.61 in 10.0 mi NNE 3.5 mph - N/A   Mostly Cloudy
9:58 PM 25.2 °F 20.9 °F 19.0 °F 78% 30.61 in 10.0 mi NE 3.5 mph - N/A   Scattered Clouds
10:58 PM 25.9 °F - 20.3 °F 79% 30.59 in 10.0 mi NE 2.3 mph - N/A   Overcast
11:58 PM 26.8 °F - 18.9 °F 72% 30.57 in 10.0 mi Calm Calm - N/A   Clear